Wind_Speed
5 5 5 4 5 5 5 6 6 6 6 6 7 7 7 8 8 8 9 9 9 9 10 10 10 10 11 12 12 12 12 12 12 11 11 11 11 11 11 10 10 10 10
6 6 6 6 6 6 6 7 7 7 7 7 8 8 8 9 9 9 9 9 10 10 10 11 11 12 11 12 12 13 13 13 13 13 12 12 12 11 11 12 11 10 10
7 7 7 6 6 6 7 7 8 7 7 8 8 8 8 9 9 9 10 9 10 10 11 11 11 12 12 12 12 13 13 13 14 13 13 13 13 13 13 12 12 12 11
8 8 7 7 7 7 7 8 9 8 8 9 9 9 9 9 10 10 10 10 10 10 11 11 12 12 12 12 13 13 13 13 14 14 14 14 14 14 14 14 13 13 13
9 9 9 9 8 8 8 8 8 9 9 9 10 10 10 10 10 9 10 10 11 11 11 11 11 11 12 13 13 13 13 13 14 13 14 14 15 15 15 15 15 15 14
10 10 9 10 9 9 9 9 10 10 10 10 11 11 11 12 11 11 11 10 11 11 11 11 11 12 12 13 13 13 13 13 14 14 14 14 15 15 15 16 16 15 14
12 11 10 10 10 10 10 10 10 11 11 11 12 12 12 12 12 11 12 12 12 12 11 12 12 13 13 13 14 14 14 14 15 14 14 15 15 15 16 15 15 15 15
13 12 12 12 11 11 11 11 11 12 12 12 12 12 11 11 12 12 12 12 12 12 13 13 14 13 14 14 14 14 14 15 15 15 15 16 16 16 16 15 15 14 15
15 14 13 13 13 13 13 12 12 13 12 12 12 11 11 11 12 12 12 12 12 12 13 13 14 14 15 15 15 15 15 16 16 16 16 16 17 17 16 15 15 15 16
17 16 15 15 15 15 14 13 13 13 13 13 12 12 12 12 12 12 12 12 12 12 12 13 13 13 14 14 15 15 15 15 16 16 17 17 17 17 17 17 16 16 16
18 18 17 16 16 15 15 15 14 13 13 13 13 13 13 13 13 12 12 12 13 12 12 13 13 13 14 14 15 15 15 16 17 17 17 18 18 18 18 18 18 18 18
19 18 19 18 17 16 16 16 15 14 14 13 13 13 13 13 13 13 13 13 13 12 12 13 13 14 14 14 14 15 16 16 17 17 18 18 18 19 19 19 19 19 20
20 18 19 19 18 17 16 17 17 15 15 14 14 14 14 14 14 14 14 14 14 13 12 13 13 13 13 14 15 15 16 16 17 17 18 18 18 19 19 19 20 21 21
21 20 20 19 19 19 18 17 17 17 16 15 15 15 15 14 15 15 15 15 15 14 14 14 14 14 14 15 15 15 15 16 16 17 18 18 19 19 20 20 21 21 21
23 24 22 22 22 21 20 18 18 18 17 17 17 16 16 16 16 16 16 16 16 16 16 16 15 15 15 15 16 16 16 16 17 17 18 18 19 20 20 21 21 21 22
25 24 23 24 24 23 22 20 19 19 19 19 18 18 17 17 17 17 17 17 17 17 17 17 17 17 16 16 17 18 18 18 18 17 17 19 20 20 21 21 22 22 22
25 25 24 24 23 23 22 21 21 21 20 20 20 19 18 18 18 18 19 19 19 19 18 18 18 18 18 18 19 20 19 19 18 18 18 19 20 20 21 21 21 22 23
26 25 24 23 23 23 23 23 22 21 21 21 21 20 20 20 20 20 20 20 20 20 19 19 19 20 20 20 19 20 20 19 19 19 19 19 20 20 20 22 22 22 22
27 26 24 23 23 23 23 22 21 21 21 21 21 21 21 21 21 21 21 21 21 21 20 21 21 21 20 21 20 20 21 21 21 21 21 21 21 21 21 21 21 21 21
28 27 25 24 22 22 22 22 21 21 22 22 22 22 22 22 21 22 22 22 21 21 21 22 21 22 22 22 21 21 22 22 22 22 22 22 21 21 21 21 20 20 21
28 27 26 25 24 23 23 23 22 23 23 23 23 23 23 22 22 21 21 21 22 21 22 22 22 22 22 22 23 23 23 23 23 23 22 22 21 21 22 22 21 21 21
27 27 26 26 26 25 25 25 24 24 24 24 23 23 23 22 22 22 22 22 22 22 22 23 23 22 23 23 23 23 23 23 22 22 22 22 22 22 22 22 21 21 21
27 26 25 26 26 25 25 25 25 25 24 23 23 23 24 23 23 22 22 23 23 23 23 23 23 23 23 23 23 23 24 24 23 22 22 22 22 22 22 21 21 21 21
27 26 25 26 26 26 26 25 25 25 24 23 23 23 23 23 23 23 23 23 23 22 23 23 23 23 23 23 23 23 23 23 22 22 21 21 21 21 22 22 22 21 22
28 27 26 26 25 24 24 24 24 24 23 23 22 22 23 23 24 24 23 23 23 23 23 23 23 24 24 24 24 23 23 22 22 22 22 22 21 21 21 22 22 22 22
28 28 27 26 25 25 24 24 24 24 23 24 24 23 23 24 24 24 24 24 24 24 24 24 24 24 24 25 24 24 24 24 23 23 23 23 23 22 21 21 21 22 23
Wind_Direction
322 320 316 315 311 304 303 307 307 300 298 294 293 289 289 288 287 283 282 279 276 276 279 281 283 283 280 278 277 275 276 274 273 272 271 273 274 272 273 278 277 277 273
316 317 312 308 309 307 302 302 307 294 295 296 291 286 285 286 288 285 281 282 278 278 280 281 282 283 280 279 277 274 274 275 274 273 271 275 276 275 275 274 275 276 275
313 309 308 308 306 304 308 306 306 297 291 296 296 292 292 290 289 286 283 283 280 278 280 282 281 282 282 283 283 280 277 273 274 274 275 275 274 274 275 276 274 274 275
310 305 300 300 302 300 299 302 305 302 297 296 298 297 296 294 291 287 286 285 281 279 280 281 279 282 284 283 284 283 279 276 275 273 275 276 275 273 274 277 274 272 274
308 303 300 298 299 298 297 297 300 300 298 298 300 297 293 290 292 291 288 285 286 286 285 285 283 283 284 283 282 280 279 278 277 275 276 277 277 276 276 274 271 269 271
305 302 298 295 294 294 297 297 298 299 295 294 296 296 294 293 293 291 290 289 289 286 286 286 285 286 286 286 285 281 278 279 278 274 275 277 279 279 278 275 271 270 269
297 297 296 294 290 291 295 296 297 298 296 295 296 296 296 294 291 288 289 291 287 285 286 286 287 287 285 286 284 280 277 279 280 274 274 276 279 278 278 278 278 275 270
291 291 292 291 290 292 294 294 296 297 297 298 299 299 298 297 294 290 290 290 284 283 285 286 287 286 286 287 284 282 279 279 281 278 276 278 279 281 282 281 280 278 276
287 286 286 288 290 291 292 292 294 296 297 297 298 297 298 300 302 297 294 293 286 285 287 289 289 288 287 286 286 286 285 281 282 281 279 280 279 279 279 280 279 277 278
281 280 283 285 287 290 287 288 291 294 295 296 296 296 297 297 299 301 299 294 289 289 287 287 287 289 288 288 289 289 287 286 285 283 284 282 277 276 277 278 278 277 276
278 279 282 283 286 286 283 284 289 292 293 295 296 295 295 295 295 296 296 292 294 293 292 291 291 293 291 290 291 291 290 288 285 283 283 283 280 276 276 276 277 277 278
278 278 278 280 282 282 281 282 286 290 293 296 297 296 295 295 295 295 294 292 291 292 292 292 294 294 292 292 296 294 291 288 286 283 281 281 280 279 275 274 276 277 277
278 278 277 277 277 279 280 281 283 286 290 293 293 293 293 294 296 297 296 295 292 292 291 291 291 292 294 296 298 298 294 292 290 286 283 281 279 278 276 276 276 275 274
277 278 278 278 277 277 277 279 281 285 289 291 291 291 290 291 293 293 295 295 294 292 292 292 290 291 293 296 298 301 299 299 295 290 285 283 281 279 277 276 276 274 272
276 277 276 276 276 274 275 278 279 282 285 287 288 287 286 288 290 292 292 293 293 292 292 293 291 292 292 292 296 299 299 298 296 293 289 287 284 281 279 278 276 276 274
273 275 275 274 273 271 271 274 277 280 281 283 284 285 285 285 287 289 293 293 293 292 292 293 293 292 291 292 295 297 299 298 296 295 290 287 287 284 281 280 278 276 275
272 273 273 272 270 270 269 270 273 276 279 280 282 283 283 285 288 291 292 292 292 291 292 293 293 293 293 294 295 296 298 297 296 295 293 289 288 286 284 281 279 277 276
270 272 271 269 267 269 270 270 271 274 276 279 281 282 283 285 287 290 291 290 290 289 289 290 291 292 292 293 294 295 295 296 296 296 295 291 288 288 286 282 282 281 279
269 270 270 270 267 268 270 269 270 272 275 278 281 280 281 284 285 289 291 291 291 291 292 292 291 291 291 291 293 294 295 297 296 295 294 293 291 290 289 285 284 285 283
268 269 268 269 268 269 269 267 268 271 273 276 279 280 281 282 283 286 288 290 290 290 291 291 291 289 289 290 293 294 295 296 295 293 292 292 292 291 291 288 288 288 286
268 267 267 268 268 268 268 267 268 272 275 277 277 276 278 280 280 283 286 288 288 288 289 291 292 291 290 290 291 292 291 292 293 293 291 290 289 289 289 288 285 286 286
269 268 266 267 266 265 266 266 267 272 276 278 279 277 278 280 281 282 284 286 287 287 288 289 290 291 291 292 292 292 291 292 293 292 291 290 289 288 288 286 284 284 284
268 267 267 265 265 265 263 264 267 270 275 276 278 280 280 278 279 280 282 284 285 286 287 289 289 289 290 291 292 292 292 292 292 291 290 291 290 289 287 285 284 284 284
265 266 266 266 264 262 262 264 266 268 273 275 276 280 280 279 279 281 283 284 284 285 287 288 288 288 289 291 292 293 294 294 293 291 291 291 290 289 288 286 285 284 284
261 261 261 263 263 261 262 263 264 267 270 274 275 278 280 280 279 279 281 282 283 284 286 287 286 287 288 290 292 293 293 293 292 291 290 290 289 287 285 284 284 284 284
259 259 260 262 261 258 259 262 264 266 269 273 276 277 280 281 280 279 279 280 282 283 286 287 287 286 287 289 290 290 291 291 290 288 288 288 287 286 284 283 285 287 286
Height
5879 5878 5878 5877 5877 5877 5876 5876 5876 5876 5876 5875 5875 5875 5875 5874 5874 5874 5874 5874 5874 5874 5874 5874 5874 5874 5874 5874 5874 5874 5875 5875 5875 5876 5876 5876 5876 5876 5876 5877 5877 5877 5877
5878 5878 5877 5877 5876 5876 5876 5876 5875 5875 5875 5874 5874 5874 5873 5872 5872 5872 5872 5871 5871 5872 5871 5871 5871 5871 5871 5871 5871 5871 5872 5872 5872 5873 5873 5874 5874 5874 5874 5874 5874 5874 5874
5878 5877 5876 5876 5876 5876 5875 5875 5874 5874 5874 5873 5873 5872 5872 5871 5870 5870 5869 5869 5869 5869 5869 5869 5869 5869 5869 5869 5868 5869 5869 5869 5869 5870 5870 5871 5871 5871 5871 5871 5871 5871 5871
5877 5876 5876 5875 5875 5875 5874 5874 5873 5873 5872 5871 5871 5870 5870 5869 5868 5868 5867 5867 5867 5866 5866 5866 5866 5866 5866 5866 5866 5866 5866 5866 5866 5867 5867 5867 5868 5868 5868 5868 5868 5868 5868
5876 5875 5875 5874 5874 5874 5873 5873 5872 5871 5871 5870 5869 5868 5868 5867 5865 5865 5866 5865 5864 5864 5864 5863 5863 5863 5863 5863 5863 5862 5862 5863 5863 5863 5864 5864 5864 5865 5865 5865 5865 5865 5865
5875 5874 5873 5873 5872 5872 5872 5871 5871 5870 5869 5868 5867 5867 5866 5865 5864 5863 5862 5861 5861 5861 5861 5861 5861 5861 5860 5860 5859 5859 5859 5859 5860 5860 5860 5861 5861 5861 5861 5861 5861 5861 5861
5873 5873 5872 5872 5871 5871 5870 5870 5869 5868 5867 5866 5866 5865 5864 5863 5862 5861 5860 5860 5859 5859 5858 5858 5858 5857 5857 5856 5856 5855 5855 5856 5856 5856 5856 5857 5857 5857 5857 5857 5857 5857 5857
5871 5871 5870 5870 5869 5869 5868 5868 5867 5866 5865 5864 5863 5862 5862 5861 5860 5859 5858 5858 5857 5856 5856 5855 5854 5854 5854 5853 5852 5852 5852 5852 5852 5852 5852 5853 5853 5853 5853 5853 5853 5853 5854
5869 5868 5868 5868 5867 5867 5866 5865 5865 5864 5863 5862 5861 5860 5859 5859 5858 5857 5856 5855 5854 5853 5853 5852 5851 5851 5850 5850 5849 5849 5848 5848 5848 5848 5849 5849 5849 5849 5849 5849 5850 5850 5850
5865 5865 5865 5865 5864 5864 5863 5862 5862 5861 5860 5859 5858 5857 5857 5855 5855 5854 5853 5852 5851 5850 5849 5849 5848 5847 5847 5846 5846 5845 5845 5844 5844 5844 5844 5845 5845 5845 5845 5845 5845 5845 5845
5862 5862 5862 5861 5861 5860 5860 5859 5859 5858 5857 5856 5856 5854 5854 5852 5851 5851 5850 5849 5848 5847 5846 5846 5845 5844 5844 5843 5842 5841 5841 5840 5840 5840 5840 5840 5840 5840 5841 5841 5841 5841 5841
5857 5858 5858 5858 5857 5857 5856 5856 5855 5855 5854 5853 5852 5851 5850 5849 5848 5848 5847 5846 5845 5844 5843 5843 5842 5841 5840 5839 5838 5837 5837 5836 5835 5835 5835 5835 5835 5836 5836 5836 5836 5836 5836
5853 5853 5853 5853 5853 5853 5852 5852 5852 5851 5850 5850 5849 5848 5847 5846 5845 5844 5844 5843 5842 5841 5840 5840 5839 5838 5837 5836 5835 5834 5833 5832 5831 5831 5830 5830 5830 5830 5831 5831 5831 5831 5831
5848 5848 5848 5848 5848 5848 5848 5848 5847 5847 5846 5846 5845 5844 5844 5843 5842 5841 5841 5840 5838 5838 5837 5836 5835 5834 5833 5832 5831 5830 5829 5828 5827 5826 5826 5826 5825 5825 5825 5825 5825 5825 5825
5843 5843 5843 5843 5843 5843 5843 5843 5843 5842 5842 5842 5841 5841 5840 5839 5838 5838 5837 5836 5835 5834 5833 5832 5831 5830 5829 5828 5827 5826 5825 5824 5823 5822 5821 5821 5821 5820 5820 5819 5819 5819 5819
5837 5837 5837 5837 5837 5837 5837 5837 5838 5837 5837 5837 5837 5836 5835 5835 5834 5833 5832 5831 5830 5829 5828 5828 5826 5825 5825 5824 5823 5822 5821 5820 5818 5817 5817 5816 5816 5815 5815 5814 5813 5813 5813
5830 5830 5830 5831 5831 5831 5831 5832 5832 5832 5832 5832 5831 5831 5830 5830 5829 5828 5828 5827 5825 5824 5824 5823 5822 5821 5820 5819 5818 5817 5816 5815 5814 5813 5812 5811 5810 5810 5809 5808 5808 5807 5807
5823 5823 5823 5824 5824 5825 5825 5826 5826 5826 5826 5826 5826 5826 5825 5825 5824 5823 5822 5821 5820 5819 5818 5817 5817 5816 5815 5814 5813 5812 5811 5810 5809 5808 5807 5806 5805 5804 5803 5802 5802 5801 5800
5816 5817 5817 5817 5818 5818 5819 5820 5820 5820 5820 5820 5820 5820 5820 5819 5819 5818 5817 5816 5815 5814 5813 5812 5811 5810 5810 5809 5808 5807 5806 5805 5803 5802 5801 5800 5799 5798 5797 5796 5796 5795 5794
5809 5810 5810 5810 5811 5812 5813 5814 5814 5815 5815 5815 5815 5814 5814 5813 5813 5812 5812 5811 5810 5808 5807 5806 5805 5804 5804 5803 5802 5801 5800 5799 5797 5796 5795 5794 5793 5792 5792 5791 5790 5789 5788
5801 5802 5803 5804 5805 5805 5806 5807 5808 5808 5808 5808 5808 5808 5808 5807 5807 5806 5806 5805 5804 5803 5802 5801 5800 5799 5798 5797 5796 5795 5794 5793 5791 5790 5789 5788 5787 5786 5786 5785 5784 5783 5783
5793 5794 5795 5796 5797 5798 5799 5800 5801 5802 5802 5802 5802 5801 5801 5801 5800 5800 5799 5799 5798 5797 5796 5795 5794 5793 5792 5791 5789 5788 5787 5786 5785 5784 5783 5782 5781 5780 5779 5779 5778 5777 5777
5785 5786 5787 5788 5789 5791 5792 5793 5794 5795 5795 5795 5795 5794 5794 5794 5794 5794 5793 5792 5792 5791 5790 5789 5788 5787 5785 5784 5783 5782 5780 5779 5778 5777 5777 5776 5775 5774 5773 5772 5772 5771 5771
5778 5779 5780 5781 5782 5783 5784 5786 5787 5788 5788 5788 5788 5787 5787 5787 5787 5787 5786 5786 5785 5784 5784 5782 5781 5780 5779 5778 5776 5775 5774 5773 5772 5771 5770 5769 5769 5768 5767 5766 5765 5765 5764
5770 5771 5773 5774 5775 5776 5777 5778 5780 5781 5781 5781 5781 5781 5781 5781 5781 5780 5780 5779 5779 5778 5777 5775 5774 5773 5772 5771 5769 5768 5767 5767 5766 5765 5763 5763 5762 5761 5761 5760 5759 5758 5757
5761 5763 5765 5767 5768 5768 5769 5771 5772 5774 5775 5775 5775 5774 5774 5774 5774 5773 5773 5772 5772 5771 5770 5769 5767 5766 5765 5764 5763 5761 5761 5760 5759 5758 5757 5756 5755 5754 5754 5753 5752 5751 5750